Regional Weather Roundup
Issued by NWS

Home | Current Version | Previous Version | Graphics & Text | Print | Product List | Glossary On
Versions: 1 2 3 4 5 6 7 8 9 10 11 12 13 14 15 16 17 18 19 20 21 22 23 24 25 26 27 28 29 30 31 32 33 34 35 36 37 38 39 40 41 42 43 44 45 46 47 48 49 50
000
ASUS45 KCYS 040810
RWRWY

WYOMING REGIONAL WEATHER ROUNDUP
NATIONAL WEATHER SERVICE CHEYENNE WY
100 AM MST WED MAR 04 2015

NOTE:  "FAIR" INDICATES FEW OR NO CLOUDS BELOW 12,000 FEET
WITH NO SIGNIFICANT WEATHER AND/OR OBSTRUCTIONS TO VISIBILITY.

WYZ001-040900-
YELLOWSTONE NATIONAL PARK

CITY           SKY/WX    TMP DP  RH WIND       PRES   REMARKS
LK YELLOWSTONE   N/A    -12 -17  78 CALM      29.92R
W YELLOWSTONE  NOT AVBL

$$
WYZ002>013-054>058-071-098>099-040900-
NORTHERN WYOMING

CITY           SKY/WX    TMP DP  RH WIND       PRES   REMARKS
JACKSON        CLOUDY     9   3  78 N5        29.93R WCI   0
CODY           FAIR       5   0  78 W5        30.02S WCI  -4
GREYBULL       FAIR       4  -2  76 CALM      30.11R
WORLAND        FAIR       2  -3  80 S9        30.09R WCI -13
SHERIDAN       FAIR       8 -10  43 W13       30.06S WCI  -8
BUFFALO        FAIR       4  -7  60 CALM      29.99F
GILLETTE       FAIR       0  -7  72 SW12      30.03S WCI -17
HULETT         FAIR       5  -4  66 SW8       30.02R WCI  -8
NEWCASTLE      FAIR       3  -2  78 NW7       30.06S WCI  -9

$$
WYZ014>020-022>026-101>103-040900-
CENTRAL WYOMING

CITY           SKY/WX    TMP DP  RH WIND       PRES   REMARKS
BIG PINEY      FAIR       9   1  70 CALM      29.90R
PINEDALE       FAIR      -6 -13  71 NW7       29.88S WCI -20
DUBOIS         CLOUDY     0  -6  78 CALM      29.90R
LANDER         FAIR       3  -3  76 VRB3      30.01S
RIVERTON       FAIR       1  -4  79 MISG      30.03S
CASPER         FAIR      -5 -10  79 W7        30.03R WCI -19
DOUGLAS        FAIR      -2  -5  87 CALM      30.04R

$$
WYZ021-027>030-104>119-040900-
SOUTHERN WYOMING

CITY           SKY/WX    TMP DP  RH WIND       PRES   REMARKS
EVANSTON       CLOUDY     8   5  87 SW10      29.92R WCI  -6
FORT BRIDGER   FAIR      14   9  82 W9        29.94R WCI   2
ROCK SPRINGS   FAIR      -2  -5  87 E8        29.94R WCI -17
DIXON          FAIR      11   8  88 CALM      29.96R
RAWLINS        CLOUDY    -2  -6  83 NW12      29.93R WCI -20
SARATOGA       LGT SNOW   7   3  85 NW5       29.91R VSB 3/4 WCI  -2
LARAMIE        CLOUDY     1  -3  83 N12       29.85R WCI -16
CHEYENNE       LGT SNOW   7   2  80 N10       29.93R WCI  -8
TORRINGTON     FAIR       5   1  83 NW8       30.07R WCI  -8
PINE BLUFFS    LGT SNOW  10   9  92 N10       30.01R WCI  -3

$$



USA.gov is the U.S. government's official web portal to all federal, state and local government web resources and services.